Location: Góry Miechowskie
(50.3599°N, 20.1803°E)
Time: 22:15:05
(UTC+00:00)

CZ-2C R/B - Visible Passes

Search period start: 15 September 2024 00:00
Search period end: 25 September 2024 00:00
Orbit: 782 x 869 km, 98.3° (Epoch: 15 September)

Date Brightness Start Highest point End Pass type
(mag) Time Alt. Az. Time Alt. Az. Time Alt. Az.
15 Sep 4.0 01:08:34 25° NW 01:08:34 25° NW 01:11:00 10° NNW visible
15 Sep 4.5 23:07:51 25° NE 23:07:51 25° NE 23:11:10 10° N visible
16 Sep 3.9 00:49:20 30° NW 00:49:20 30° NW 00:52:00 10° NNW visible
16 Sep 4.8 22:48:37 19° NE 22:48:37 19° NE 22:51:38 10° NNE visible
17 Sep 3.8 00:30:06 33° NNW 00:30:06 33° NNW 00:32:55 10° NNW visible
17 Sep 5.0 22:29:22 14° NE 22:29:22 14° NE 22:31:53 10° NNE visible
18 Sep 3.9 00:10:51 34° N 00:10:51 34° N 00:13:45 10° NNW visible
18 Sep 4.7 01:52:20 12° NW 01:52:20 12° NW 01:52:54 10° NW visible
18 Sep 5.2 22:10:08 11° NE 22:10:20 11° NE 22:11:26 10° NE visible
18 Sep 4.1 23:51:38 32° N 23:51:38 32° N 23:54:31 10° N visible
19 Sep 4.6 01:33:06 15° NW 01:33:06 15° NW 01:34:19 10° NW visible
19 Sep 4.4 23:32:23 28° NNE 23:32:23 28° NNE 23:35:12 10° N visible
20 Sep 4.4 01:13:51 19° NW 01:13:51 19° NW 01:15:29 10° NNW visible
20 Sep 4.6 23:13:08 23° NNE 23:13:08 23° NNE 23:15:48 10° N visible
21 Sep 4.3 00:54:37 22° NNW 00:54:37 22° NNW 00:56:30 10° NNW visible
21 Sep 4.9 22:53:53 19° NE 22:53:53 19° NE 22:56:18 10° N visible
22 Sep 4.3 00:35:23 24° NNW 00:35:23 24° NNW 00:37:27 10° NNW visible
22 Sep 5.1 22:34:39 15° NE 22:34:39 15° NE 22:36:37 10° NNE visible
23 Sep 4.3 00:16:07 26° NNW 00:16:07 26° NNW 00:18:18 10° NNW visible
23 Sep 5.3 22:15:23 11° NE 22:15:23 11° NE 22:16:32 10° NNE visible
23 Sep 4.5 23:56:53 25° N 23:56:53 25° N 23:59:04 10° N visible
24 Sep 4.8 01:38:21 11° NW 01:38:21 11° NW 01:38:43 10° NW visible
24 Sep 4.6 23:37:38 23° N 23:37:38 23° N 23:39:47 10° N visible
